User: anonymous   Login
Location: Unspecified
(0.0000°N, 0.0000°E)
Time: 13:33:19
(UTC+02:00)
Language:

OPAL - Orbit

View from above orbital plane
View from above orbital plane
View from above satellite
View from above satellite

Ground track
Ground track

The orbit data is extracted from the following two-line orbital elements,

1 26063U 00004C   15115.62858564  .00000182  00000-0  81669-4 0  9993
2 26063 100.2241 324.5817 0036558 359.0292 001.0811 14.36527686798874
Epoch (UTC): 25 April 2015 15:05:09
Eccentricity: 0.0036558
inclination: 100.2241°
perigee height: 744 km
apogee height: 796 km
right ascension of ascending node: 324.5817°
argument of perigee: 359.0292°
revolutions per day: 14.36527686
mean anomaly at epoch: 1.0811°
orbit number at epoch: 79887

The dashed part of the orbit path shows where the satellite is in the earth's shadow,  

DLR